Szolnok, Hungary

6:14 PM CEST on October 01, 2016 (GMT +0200)
Szolnok

Weather History for LHSN - October, 2012

Change the Weather History Date:

Monday, October 8, 2012

  Actual Average (LHBP) Record (LHBP)
Temperature  
Mean Temperature 50 °F -  
Max Temperature 59 °F 63 °F 78 °F (2001)
Min Temperature 42 °F 44 °F 33 °F (2002)
Degree Days  
Heating Degree Days 14    
Moisture  
Dew Point 39 °F    
Average Humidity 65    
Maximum Humidity 87    
Minimum Humidity 41    
Precipitation  
Precipitation 0.00 in - - ()
Sea Level Pressure  
Sea Level Pressure 30.06 in    
Wind  
Wind Speed 10 mph ()    
Max Wind Speed 18 mph    
Max Gust Speed 22 mph    
Visibility 6.2 miles    
Events      
Averages and records for this station are not official NWS values.
T = Trace of Precipitation, MM = Missing Value Source: Averaged Metar Reports

Daily Weather History Graph

Daily Weather History Graph

Search for Another Location

Airport or City:

Trip Planner

Search our weather history database for the weather conditions in past years. The results will help you decide how hot, cold, wet, or windy it might be!

Date:

Astronomy

Oct. 08, 2012 Rise Set
Actual Time 6:47 AM CEST 6:04 PM CEST
Civil Twilight 6:17 AM CEST 6:34 PM CEST
Nautical Twilight 5:41 AM CEST 7:10 PM CEST
Astronomical Twilight 5:06 AM CEST 7:45 PM CEST
Moon 11:44 PM CEST (10/8) 2:06 PM CEST (10/8)
Length of Visible Light 12h 17m
Length of Day
11h 16m
Waning Gibbous, 49% of the Moon is Illuminated
Oct 8
Waning Gibbous
Oct 15
New
Oct 22
First Quarter
Oct 29
Full
Nov 7
Last Quarter

Hourly Weather History & Observations

Time (CEST) Temp. Windchill Dew Point Humidity Pressure Visibility Wind Dir Wind Speed Gust Speed Precip Events Conditions
12:15 AM 51.8 °F - 42.8 °F 71% 29.92 in 6.2 mi NW 15.7 mph - N/A   Scattered Clouds
12:45 AM 50.0 °F - 42.8 °F 76% 29.95 in 6.2 mi NW 11.2 mph - N/A   Mostly Cloudy
1:15 AM 50.0 °F - 41.0 °F 71% 29.98 in 6.2 mi NW 15.7 mph - N/A   Mostly Cloudy
1:45 AM 50.0 °F - 39.2 °F 66% 30.01 in 6.2 mi NW 13.4 mph - N/A   Mostly Cloudy
2:15 AM 50.0 °F - 39.2 °F 66% 30.01 in 6.2 mi NNW 13.4 mph - N/A   Mostly Cloudy
2:45 AM 50.0 °F - 39.2 °F 66% 30.04 in 6.2 mi NW 8.9 mph - N/A   Mostly Cloudy
3:15 AM 48.2 °F - 37.4 °F 66% 30.04 in 6.2 mi NNW 11.2 mph - N/A   Mostly Cloudy
3:45 AM - - - N/A% - 6.2 mi NW 11.2 mph - N/A   Clear
4:15 AM 46.4 °F 44.4 °F 39.2 °F 76% 30.04 in - West 4.5 mph - N/A   Clear
4:45 AM 44.6 °F 40.8 °F 39.2 °F 81% 30.06 in - West 6.7 mph - N/A   Clear
5:15 AM 44.6 °F 42.3 °F 39.2 °F 81% 30.06 in - WNW 4.5 mph - N/A   Clear
5:45 AM 42.8 °F - 39.2 °F 87% 30.06 in - WNW 2.2 mph - N/A   Clear
6:15 AM 42.8 °F 40.2 °F 39.2 °F 87% 30.06 in - West 4.5 mph - N/A   Clear
6:45 AM - - - N/A% - 6.2 mi WNW 8.9 mph - N/A   Clear
7:15 AM 46.4 °F 42.0 °F 39.2 °F 76% 30.06 in - West 8.9 mph - N/A   Clear
7:45 AM 46.4 °F 42.0 °F 41.0 °F 81% 30.09 in - West 8.9 mph - N/A   Clear
8:15 AM 48.2 °F - 41.0 °F 76% 30.09 in - West 8.9 mph - N/A   Clear
8:45 AM 50.0 °F - 41.0 °F 71% 30.09 in - WNW 11.2 mph - N/A   Clear
9:15 AM 51.8 °F - 41.0 °F 67% 30.12 in - WNW 11.2 mph 22.4 mph N/A   Clear
9:45 AM - - - N/A% - 6.2 mi WNW 8.9 mph - N/A   Clear
10:15 AM 53.6 °F - 42.8 °F 67% 30.09 in 6.2 mi WNW 15.7 mph - N/A   Partly Cloudy
10:45 AM 53.6 °F - 41.0 °F 62% 30.09 in 6.2 mi WNW 13.4 mph - N/A   Partly Cloudy
11:15 AM 55.4 °F - 41.0 °F 58% 30.09 in 6.2 mi NW 15.7 mph - N/A   Partly Cloudy
11:45 AM 55.4 °F - 39.2 °F 54% 30.09 in 6.2 mi NW 15.7 mph - N/A   Partly Cloudy
12:15 PM 57.2 °F - 35.6 °F 44% 30.09 in 6.2 mi NW 17.9 mph - N/A   Partly Cloudy
12:45 PM - - - N/A% - - WNW 11.2 mph - N/A   Clear
1:15 PM 57.2 °F - 37.4 °F 48% 30.09 in 6.2 mi NW 15.7 mph - N/A   Partly Cloudy
2:15 PM 59.0 °F - 39.2 °F 48% 30.06 in 6.2 mi NW 13.4 mph - N/A   Scattered Clouds
2:45 PM 59.0 °F - 37.4 °F 45% 30.06 in - NW 13.4 mph - N/A   Clear
3:15 PM 59.0 °F - 35.6 °F 42% 30.06 in - NW 11.2 mph - N/A   Clear
3:45 PM - - - N/A% - - WNW 11.2 mph - N/A   Clear
4:15 PM 57.2 °F - 35.6 °F 44% 30.06 in - WNW 11.2 mph - N/A   Clear
4:45 PM 57.2 °F - 33.8 °F 41% 30.06 in - WNW 11.2 mph - N/A   Clear
5:15 PM 55.4 °F - 35.6 °F 47% 30.06 in - NW 11.2 mph - N/A   Clear
5:45 PM 53.6 °F - 35.6 °F 51% 30.06 in - WNW 8.9 mph - N/A   Clear
6:15 PM 51.8 °F - 37.4 °F 58% 30.06 in - West 4.5 mph - N/A   Clear
6:45 PM - - - N/A% - - West 6.7 mph - N/A   Clear
7:15 PM 50.0 °F - 37.4 °F 62% 30.06 in - WSW 4.5 mph - N/A   Clear
8:15 PM 48.2 °F - 39.2 °F 71% 30.06 in - WSW 6.7 mph - N/A   Clear
8:45 PM 48.2 °F - 37.4 °F 66% 30.06 in - WSW 6.7 mph - N/A   Clear
9:45 PM 46.4 °F 43.0 °F 37.4 °F 71% 30.06 in - West 6.7 mph - N/A   Clear
10:15 PM 46.4 °F 44.4 °F 35.6 °F 66% 30.06 in - West 4.5 mph - N/A   Clear
10:45 PM 46.4 °F 44.4 °F 35.6 °F 66% 30.06 in - West 4.5 mph - N/A   Clear
11:15 PM 44.6 °F 42.3 °F 35.6 °F 71% 30.06 in - West 4.5 mph - N/A   Clear
11:45 PM 44.6 °F 42.3 °F 35.6 °F 71% 30.04 in - West 4.5 mph - N/A   Clear